Marule, Australia

7:05 PM AEST on May 26, 2018 (GMT +1000)
Marule

Weather History for 94387 - November, 2013

Change the Weather History Date:

Wednesday, November 20, 2013

  Actual Average Record
Temperature  
Mean Temperature 78 °F -  
Max Temperature 87 °F - - ()
Min Temperature 68 °F - - ()
Cooling Degree Days 12    
Growing Degree Days 28 (Base 50)    
Moisture  
Dew Point 67 °F    
Average Humidity 75    
Maximum Humidity 94    
Minimum Humidity 44    
Precipitation  
Precipitation 0.00 in - - ()
Sea Level Pressure  
Sea Level Pressure 29.79 in    
Wind  
Wind Speed 7 mph ()    
Max Wind Speed 16 mph    
Max Gust Speed -    
Visibility 6.2 miles    
Events      
T = Trace of Precipitation, MM = Missing Value Source: Averaged Metar Reports

Daily Weather History Graph

Daily Weather History Graph

Search for Another Location

Airport or City:

Astronomy

Nov. 20, 2013 Rise Set
Actual Time 4:54 AM AEST 6:18 PM AEST
Civil Twilight 4:29 AM AEST 6:43 PM AEST
Nautical Twilight 3:59 AM AEST 7:13 PM AEST
Astronomical Twilight 3:28 AM AEST 7:44 PM AEST
Moon 8:28 PM AEST (11/20) 6:45 AM AEST (11/20)
Length of Visible Light 14h 14m
Length of Day
13h 24m
Waning Gibbous, 94% of the Moon is Illuminated
Nov 20
Waning Gibbous
Nov 26
Last Quarter
Dec 3
New
Dec 10
First Quarter
Dec 17
Full

Hourly Weather History & Observations

Time (AEST) Temp. Heat Index Dew Point Humidity Pressure Visibility Wind Dir Wind Speed Gust Speed Precip Events Conditions
12:00 AM 72 °F - 69 °F 87% 29.77 in - South 4.6 mph - -  
12:00 AM 71.6 °F - 69.8 °F 94% 29.77 in 6.2 mi South 4.6 mph - N/A   Unknown
1:00 AM 71.6 °F - 69.8 °F 94% 29.77 in 6.2 mi South 5.8 mph - N/A   Unknown
1:22 AM 69.8 °F - 68.0 °F 94% 29.74 in 5.6 mi South 5.8 mph - N/A   Mostly Cloudy
1:30 AM 69.8 °F - 68.0 °F 94% 29.74 in 6.2 mi South 4.6 mph - N/A   Mostly Cloudy
2:00 AM 69.8 °F - 68.0 °F 94% 29.74 in 6.2 mi South 5.8 mph - N/A   Overcast
2:30 AM 69.8 °F - 66.2 °F 88% 29.74 in 6.2 mi South 8.1 mph - N/A   Mostly Cloudy
3:00 AM 70 °F - 66 °F 82% 29.75 in - South 6.9 mph - -  
3:00 AM 69.8 °F - 66.2 °F 88% 29.74 in 6.2 mi South 6.9 mph - N/A   Overcast
3:30 AM 69.8 °F - 66.2 °F 88% 29.74 in 6.2 mi SSW 5.8 mph - N/A   Overcast
4:00 AM 68.0 °F - 64.4 °F 88% 29.74 in 6.2 mi SSW 8.1 mph - N/A   Scattered Clouds
4:07 AM 68.0 °F - 64.4 °F 88% 29.74 in 6.2 mi South 8.1 mph - N/A   Scattered Clouds
5:00 AM 68.0 °F - 64.4 °F 88% 29.77 in 6.2 mi SSW 8.1 mph - N/A   Scattered Clouds
5:09 AM 68.0 °F - 64.4 °F 88% 29.77 in 6.2 mi SSW 6.9 mph - N/A   Mostly Cloudy
5:30 AM 68.0 °F - 64.4 °F 88% 29.80 in 6.2 mi SSW 6.9 mph - N/A   Overcast
6:00 AM 69 °F - 65 °F 83% 29.81 in - South 8.1 mph - -  
6:00 AM 69.8 °F - 64.4 °F 83% 29.80 in 6.2 mi South 8.1 mph - N/A   Overcast
6:30 AM 69.8 °F - 64.4 °F 83% 29.83 in 6.2 mi South 9.2 mph - N/A   Overcast
7:00 AM 73.4 °F - 66.2 °F 78% 29.83 in 6.2 mi South 9.2 mph - N/A   Overcast
7:29 AM 77.0 °F - 66.2 °F 69% 29.83 in 6.2 mi SSE 11.5 mph - N/A   Scattered Clouds
8:00 AM 78.8 °F - 68.0 °F 69% 29.83 in 6.2 mi SSE 10.4 mph - N/A   Unknown
9:00 AM 81 °F - 65 °F 50% 29.84 in - SE 10.4 mph - -  
9:00 AM 80.6 °F 82.7 °F 66.2 °F 61% 29.83 in 6.2 mi SE 10.4 mph - N/A   Unknown
10:00 AM 84.2 °F 85.6 °F 64.4 °F 51% 29.83 in 6.2 mi ESE 10.4 mph - N/A   Unknown
11:00 AM 84.2 °F 87.3 °F 68.0 °F 58% 29.80 in 6.2 mi East 11.5 mph - N/A   Unknown
12:00 PM 85 °F - 66 °F 44% 29.80 in - East 12.7 mph - -  
12:00 PM 84.2 °F 86.6 °F 66.2 °F 55% 29.80 in 6.2 mi East 12.7 mph - N/A   Unknown
1:00 PM 87.8 °F 91.4 °F 68.0 °F 52% 29.77 in 6.2 mi East 13.8 mph - N/A   Unknown
2:00 PM 86.0 °F 88.2 °F 66.2 °F 51% 29.74 in 6.2 mi ENE 15.0 mph - N/A   Unknown
3:00 PM 85 °F - 68 °F 47% 29.74 in - ENE 16.1 mph - -  
3:00 PM 84.2 °F 87.3 °F 68.0 °F 58% 29.74 in 6.2 mi ENE 16.1 mph - N/A   Unknown
4:00 PM 82.4 °F 84.6 °F 66.2 °F 58% 29.74 in 6.2 mi East 15.0 mph - N/A   Unknown
5:00 PM 78.8 °F - 68.0 °F 69% 29.74 in 6.2 mi East 15.0 mph - N/A   Unknown
6:00 PM 76 °F - 68 °F 69% 29.78 in - East 13.8 mph - -  
6:00 PM 77.0 °F - 68.0 °F 74% 29.77 in 6.2 mi East 13.8 mph - N/A   Unknown
7:00 PM 75.2 °F - 68.0 °F 78% 29.80 in 6.2 mi ENE 10.4 mph - N/A   Scattered Clouds
8:00 PM 75.2 °F - 68.0 °F 78% 29.83 in 6.2 mi East 6.9 mph - N/A   Mostly Cloudy
9:00 PM 74 °F - 67 °F 73% 29.85 in - ESE 9.2 mph - -  
9:00 PM 73.4 °F - 66.2 °F 78% 29.86 in 6.2 mi ESE 9.2 mph - N/A   Scattered Clouds
10:00 PM 73.4 °F - 66.2 °F 78% 29.86 in 6.2 mi ESE 6.9 mph - N/A   Mostly Cloudy
11:00 PM 71.6 °F - 66.2 °F 83% 29.86 in 6.2 mi SE 4.6 mph - N/A   Mostly Cloudy